| time (UTC) | temp C | wind direction | speed KPH | gust KPH | rain 1hr cm | rain 24hr cm | rain mn cm | humidity % | barometer mb |
| 20260507075824 | 10 | 160 | 0.0 | 3.2 | 0.00 | 0.43 | 0.00 | 67 | 1017.1 |
| 20260507074818 | 10 | 242 | 0.0 | 1.6 | 0.00 | 0.46 | 0.00 | 69 | 1017.1 |
| 20260507073816 | 10 | 259 | 0.0 | 1.6 | 0.00 | 0.51 | 0.00 | 71 | 1017.1 |
| 20260507072748 | 10 | 276 | 0.0 | 1.6 | 0.00 | 0.53 | 0.00 | 72 | 1016.9 |
| 20260507071745 | 9 | 276 | 0.0 | 1.6 | 0.00 | 0.58 | 0.00 | 74 | 1016.8 |
| 20260507070747 | 9 | 276 | 1.6 | 3.2 | 0.00 | 0.58 | 0.00 | 73 | 1016.9 |
| 20260507065745 | 9 | 231 | 0.0 | 1.6 | 0.00 | 0.58 | 0.00 | 74 | 1016.9 |
| 20260507064746 | 9 | 232 | 0.0 | 1.6 | 0.00 | 0.58 | 0.00 | 75 | 1016.8 |
| 20260507063744 | 9 | 229 | 0.0 | 1.6 | 0.00 | 0.58 | 0.00 | 76 | 1016.8 |
| 20260507062743 | 9 | 228 | 0.0 | 1.6 | 0.00 | 0.61 | 0.00 | 76 | 1016.9 |
| 20260507061745 | 9 | 232 | 0.0 | 1.6 | 0.00 | 0.61 | 0.00 | 76 | 1016.7 |
| 20260507060744 | 9 | 286 | 0.0 | 1.6 | 0.00 | 0.64 | 0.00 | 77 | 1016.7 |
| 20260507060218 | 8 | 286 | 0.0 | 1.6 | 0.00 | 0.64 | 0.00 | 78 | 1016.4 |
| 20260507054742 | 8 | 286 | 0.0 | 1.6 | 0.00 | 0.64 | 0.00 | 82 | 1016.3 |
| 20260507053743 | 8 | 286 | 0.0 | 1.6 | 0.00 | 0.64 | 0.00 | 84 | 1016.3 |
| 20260507052741 | 7 | 286 | 0.0 | 0.0 | 0.00 | 0.64 | 0.00 | 86 | 1016.2 |
| 20260507051710 | 7 | 286 | 0.0 | 0.0 | 0.00 | 0.64 | 0.00 | 87 | 1016.2 |
| 20260507050710 | 7 | 286 | 0.0 | 0.0 | 0.00 | 0.64 | 0.00 | 87 | 1016.2 |
| 20260507045710 | 7 | 286 | 0.0 | 0.0 | 0.00 | 0.64 | 0.00 | 87 | 1016.0 |
| 20260507044710 | 7 | 286 | 0.0 | 0.0 | 0.00 | 0.64 | 0.00 | 87 | 1016.1 |
| 20260507043709 | 7 | 286 | 0.0 | 0.0 | 0.00 | 0.64 | 0.00 | 87 | 1016.0 |
| 20260507042710 | 7 | 286 | 0.0 | 0.0 | 0.00 | 0.64 | 0.00 | 87 | 1015.8 |
| 20260507042146 | 7 | 286 | 0.0 | 1.6 | 0.00 | 0.64 | 0.00 | 87 | 1016.0 |
| 20260507040638 | 7 | 286 | 0.0 | 0.0 | 0.00 | 0.64 | 0.00 | 86 | 1015.7 |
| 20260507035639 | 7 | 286 | 0.0 | 1.6 | 0.00 | 0.64 | 0.00 | 85 | 1015.7 |
| 20260507034637 | 7 | 286 | 0.0 | 1.6 | 0.00 | 0.64 | 0.00 | 84 | 1015.9 |
| 20260507033637 | 7 | 286 | 0.0 | 0.0 | 0.00 | 0.64 | 0.00 | 84 | 1015.7 |
| 20260507032636 | 7 | 286 | 0.0 | 0.0 | 0.00 | 0.64 | 0.00 | 84 | 1015.7 |
| 20260507031606 | 7 | 286 | 0.0 | 0.0 | 0.00 | 0.64 | 0.00 | 84 | 1015.6 |
| 20260507031049 | 7 | 286 | 0.0 | 0.0 | 0.00 | 0.64 | 0.00 | 84 | 1015.5 |
| 20260507025606 | 7 | 286 | 0.0 | 0.0 | 0.00 | 0.64 | 0.00 | 84 | 1015.4 |
| 20260507024604 | 7 | 286 | 0.0 | 0.0 | 0.00 | 0.64 | 0.00 | 84 | 1015.5 |
| 20260507024014 | 7 | 286 | 0.0 | 0.0 | 0.00 | 0.64 | 0.00 | 84 | 1015.6 |
| 20260507022534 | 7 | 286 | 0.0 | 0.0 | 0.00 | 0.64 | 0.00 | 84 | 1015.5 |
| 20260507021533 | 7 | 286 | 0.0 | 0.0 | 0.00 | 0.64 | 0.00 | 84 | 1015.9 |
| 20260507020534 | 7 | 286 | 0.0 | 0.0 | 0.00 | 0.64 | 0.00 | 84 | 1015.6 |
| 20260507015503 | 7 | 286 | 0.0 | 0.0 | 0.00 | 0.64 | 0.00 | 84 | 1015.6 |
| 20260507014502 | 7 | 286 | 0.0 | 0.0 | 0.00 | 0.64 | 0.00 | 84 | 1015.4 |
| 20260507013432 | 7 | 286 | 0.0 | 0.0 | 0.00 | 0.64 | 0.00 | 84 | 1015.3 |
| 20260507012432 | 7 | 286 | 0.0 | 0.0 | 0.00 | 0.64 | 0.00 | 84 | 1015.4 |
| 20260507011433 | 7 | 286 | 0.0 | 1.6 | 0.00 | 0.64 | 0.00 | 83 | 1015.6 |
| 20260507005904 | 7 | 286 | 0.0 | 0.0 | 0.00 | 0.64 | 0.00 | 83 | 1015.4 |
| 20260507004429 | 8 | 286 | 0.0 | 0.0 | 0.00 | 0.64 | 0.00 | 83 | 1015.3 |
| 20260507003429 | 8 | 286 | 0.0 | 0.0 | 0.00 | 0.64 | 0.00 | 82 | 1015.4 |
| 20260507002430 | 8 | 286 | 0.0 | 0.0 | 0.00 | 0.64 | 0.00 | 82 | 1015.4 |
| 20260507001428 | 8 | 286 | 0.0 | 0.0 | 0.00 | 0.64 | 0.00 | 82 | 1015.4 |
| 20260507000428 | 8 | 286 | 0.0 | 0.0 | 0.00 | 0.64 | 0.00 | 82 | 1015.4 |
| 20260506235428 | 8 | 286 | 0.0 | 1.6 | 0.00 | 0.64 | 0.00 | 82 | 1015.6 |
| 20260506234427 | 8 | 286 | 0.0 | 1.6 | 0.00 | 0.64 | 0.00 | 82 | 1015.6 |
| 20260506233427 | 8 | 286 | 0.0 | 1.6 | 0.00 | 0.64 | 0.00 | 81 | 1015.5 |
| 20260506232426 | 8 | 286 | 0.0 | 1.6 | 0.00 | 0.64 | 0.00 | 81 | 1015.6 |
| 20260506231358 | 8 | 286 | 0.0 | 1.6 | 0.00 | 0.64 | 0.00 | 81 | 1015.5 |
| 20260506230356 | 8 | 284 | 0.0 | 3.2 | 0.00 | 0.64 | 0.00 | 81 | 1015.5 |
| 20260506225842 | 8 | 280 | 0.0 | 1.6 | 0.00 | 0.64 | 0.64 | 81 | 1015.2 |
| 20260506224355 | 8 | 280 | 0.0 | 1.6 | 0.00 | 0.64 | 0.64 | 81 | 1015.4 |
| 20260506223324 | 8 | 280 | 0.0 | 1.6 | 0.00 | 0.64 | 0.64 | 81 | 1015.5 |
| 20260506222324 | 8 | 280 | 0.0 | 1.6 | 0.00 | 0.64 | 0.64 | 81 | 1015.5 |
| 20260506221324 | 8 | 280 | 0.0 | 1.6 | 0.00 | 0.64 | 0.64 | 81 | 1015.4 |
| 20260506220323 | 8 | 280 | 0.0 | 1.6 | 0.00 | 0.64 | 0.64 | 80 | 1015.3 |
| 20260506215253 | 8 | 279 | 0.0 | 1.6 | 0.00 | 0.64 | 0.64 | 80 | 1015.2 |
| 20260506214252 | 8 | 279 | 0.0 | 1.6 | 0.00 | 0.64 | 0.64 | 80 | 1015.2 |
| 20260506213252 | 8 | 279 | 0.0 | 1.6 | 0.00 | 0.64 | 0.64 | 80 | 1015.2 |
| 20260506212251 | 8 | 279 | 0.0 | 3.2 | 0.00 | 0.64 | 0.64 | 79 | 1015.0 |
| 20260506211252 | 8 | 263 | 0.0 | 1.6 | 0.00 | 0.64 | 0.64 | 79 | 1015.0 |
| 20260506210252 | 8 | 257 | 0.0 | 1.6 | 0.00 | 0.64 | 0.64 | 79 | 1015.1 |
| 20260506205251 | 8 | 279 | 0.0 | 1.6 | 0.00 | 0.64 | 0.64 | 79 | 1014.8 |
| 20260506204729 | 8 | 275 | 0.0 | 1.6 | 0.00 | 0.64 | 0.64 | 79 | 1015.1 |
| 20260506203251 | 8 | 275 | 0.0 | 4.8 | 0.00 | 0.64 | 0.64 | 78 | 1015.4 |
| 20260506202249 | 8 | 277 | 0.0 | 3.2 | 0.00 | 0.64 | 0.64 | 78 | 1015.0 |
| 20260506201249 | 8 | 279 | 0.0 | 6.4 | 0.00 | 0.64 | 0.64 | 79 | 1015.0 |
| 20260506200250 | 8 | 275 | 0.0 | 4.8 | 0.00 | 0.64 | 0.64 | 79 | 1014.9 |
| 20260506195250 | 8 | 246 | 0.0 | 3.2 | 0.00 | 0.64 | 0.64 | 79 | 1014.8 |
| 20260506194247 | 8 | 270 | 0.0 | 3.2 | 0.00 | 0.64 | 0.64 | 79 | 1014.5 |
| 20260506193248 | 8 | 294 | 1.6 | 3.2 | 0.00 | 0.64 | 0.64 | 78 | 1014.6 |
| 20260506191246 | 9 | 259 | 0.0 | 6.4 | 0.00 | 0.64 | 0.64 | 79 | 1014.6 |
| 20260506190246 | 9 | 264 | 0.0 | 3.2 | 0.00 | 0.64 | 0.64 | 78 | 1014.4 |
| 20260506185248 | 9 | 268 | 1.6 | 4.8 | 0.00 | 0.64 | 0.64 | 78 | 1014.2 |
| 20260506184245 | 9 | 257 | 1.6 | 4.8 | 0.00 | 0.64 | 0.64 | 78 | 1014.1 |
| 20260506183244 | 9 | 274 | 0.0 | 3.2 | 0.00 | 0.64 | 0.64 | 78 | 1013.9 |
| 20260506182215 | 9 | 255 | 0.0 | 6.4 | 0.00 | 0.64 | 0.64 | 78 | 1014.1 |
| 20260506181214 | 10 | 189 | 1.6 | 9.7 | 0.00 | 0.64 | 0.64 | 78 | 1013.9 |
| 20260506180214 | 10 | 264 | 1.6 | 4.8 | 0.00 | 0.64 | 0.64 | 78 | 1013.8 |
| 20260506175213 | 10 | 235 | 0.0 | 6.4 | 0.00 | 0.64 | 0.64 | 78 | 1013.7 |
| 20260506174213 | 10 | 244 | 0.0 | 4.8 | 0.00 | 0.64 | 0.64 | 78 | 1013.6 |
| 20260506173655 | 10 | 273 | 1.6 | 6.4 | 0.00 | 0.64 | 0.64 | 78 | 1013.5 |
| 20260506172212 | 10 | 264 | 1.6 | 9.7 | 0.00 | 0.64 | 0.64 | 78 | 1013.4 |
| 20260506171212 | 10 | 254 | 0.0 | 4.8 | 0.00 | 0.64 | 0.64 | 79 | 1013.3 |
| 20260506170211 | 10 | 270 | 1.6 | 4.8 | 0.00 | 0.64 | 0.64 | 77 | 1013.4 |
| 20260506165213 | 10 | 269 | 1.6 | 4.8 | 0.00 | 0.64 | 0.64 | 79 | 1013.2 |
| 20260506164210 | 10 | 259 | 0.0 | 4.8 | 0.00 | 0.64 | 0.64 | 80 | 1013.3 |
| 20260506163210 | 10 | 263 | 0.0 | 3.2 | 0.00 | 0.64 | 0.64 | 82 | 1013.2 |
| 20260506162650 | 10 | 272 | 0.0 | 4.8 | 0.00 | 0.64 | 0.64 | 82 | 1013.3 |
| 20260506161209 | 10 | 285 | 0.0 | 6.4 | 0.00 | 0.64 | 0.64 | 82 | 1013.0 |
| 20260506160209 | 10 | 309 | 6.4 | 6.4 | 0.00 | 0.64 | 0.64 | 85 | 1013.3 |
| 20260506155208 | 10 | 282 | 0.0 | 3.2 | 0.00 | 0.64 | 0.64 | 87 | 1013.2 |
| 20260506154210 | 10 | 286 | 0.0 | 3.2 | 0.00 | 0.64 | 0.64 | 88 | 1013.1 |
| 20260506153641 | 10 | 300 | 1.6 | 3.2 | 0.00 | 0.64 | 0.64 | 87 | 1013.1 |
| 20260506152209 | 10 | 276 | 0.0 | 3.2 | 0.00 | 0.64 | 0.64 | 86 | 1013.2 |
| 20260506151210 | 10 | 288 | 1.6 | 3.2 | 0.00 | 0.64 | 0.64 | 86 | 1013.1 |
| 20260506150207 | 10 | 277 | 0.0 | 1.6 | 0.00 | 0.64 | 0.64 | 85 | 1013.1 |
| 20260506145208 | 10 | 287 | 0.0 | 3.2 | 0.00 | 0.64 | 0.64 | 85 | 1013.0 |
| 20260506144206 | 10 | 269 | 0.0 | 3.2 | 0.00 | 0.64 | 0.64 | 86 | 1013.0 |
| 20260506143205 | 10 | 256 | 0.0 | 3.2 | 0.00 | 0.64 | 0.64 | 84 | 1013.0 |
| 20260506142206 | 10 | 268 | 1.6 | 3.2 | 0.00 | 0.64 | 0.64 | 83 | 1013.0 |
| 20260506141207 | 10 | 269 | 0.0 | 3.2 | 0.00 | 0.64 | 0.64 | 83 | 1012.9 |
| 20260506140206 | 10 | 289 | 1.6 | 3.2 | 0.00 | 0.64 | 0.64 | 83 | 1013.0 |
| 20260506135204 | 10 | 270 | 0.0 | 3.2 | 0.03 | 0.64 | 0.64 | 84 | 1013.1 |
| 20260506133203 | 10 | 291 | 1.6 | 4.8 | 0.05 | 0.64 | 0.64 | 85 | 1013.0 |
| 20260506132202 | 10 | 286 | 0.0 | 4.8 | 0.05 | 0.64 | 0.64 | 86 | 1013.1 |
| 20260506131202 | 10 | 275 | 0.0 | 3.2 | 0.05 | 0.64 | 0.64 | 87 | 1013.1 |
| 20260506130202 | 10 | 286 | 0.0 | 3.2 | 0.05 | 0.64 | 0.64 | 86 | 1013.1 |
| 20260506125202 | 10 | 282 | 0.0 | 3.2 | 0.03 | 0.61 | 0.61 | 85 | 1013.0 |
| 20260506124646 | 10 | 315 | 0.0 | 4.8 | 0.00 | 0.58 | 0.58 | 82 | 1012.9 |
| 20260506123201 | 10 | 296 | 0.0 | 3.2 | 0.03 | 0.58 | 0.58 | 83 | 1012.9 |
| 20260506122200 | 10 | 94 | 0.0 | 4.8 | 0.05 | 0.58 | 0.58 | 84 | 1013.0 |
| 20260506121642 | 10 | 284 | 0.0 | 1.6 | 0.05 | 0.58 | 0.58 | 86 | 1013.1 |
| 20260506120200 | 10 | 284 | 0.0 | 3.2 | 0.13 | 0.58 | 0.58 | 86 | 1012.9 |
| 20260506115642 | 10 | 263 | 0.0 | 3.2 | 0.15 | 0.58 | 0.58 | 88 | 1013.0 |
| 20260506114637 | 10 | 238 | 0.0 | 1.6 | 0.15 | 0.56 | 0.58 | 88 | 1013.0 |
| 20260506113158 | 10 | 286 | 0.0 | 1.6 | 0.18 | 0.56 | 0.56 | 88 | 1013.1 |
| 20260506112157 | 10 | 286 | 0.0 | 4.8 | 0.20 | 0.53 | 0.53 | 88 | 1012.9 |
| 20260506111157 | 10 | 287 | 0.0 | 3.2 | 0.25 | 0.53 | 0.53 | 89 | 1013.0 |
| 20260506110157 | 9 | 285 | 0.0 | 3.2 | 0.20 | 0.46 | 0.48 | 88 | 1013.0 |
| 20260506105157 | 10 | 292 | 1.6 | 4.8 | 0.18 | 0.43 | 0.43 | 88 | 1012.9 |
| 20260506104158 | 10 | 307 | 1.6 | 4.8 | 0.15 | 0.41 | 0.41 | 89 | 1013.0 |
| 20260506103126 | 9 | 267 | 0.0 | 11.3 | 0.13 | 0.38 | 0.38 | 89 | 1012.8 |
| 20260506102606 | 9 | 303 | 3.2 | 9.7 | 0.08 | 0.33 | 0.33 | 88 | 1012.7 |
| 20260506101126 | 10 | 282 | 1.6 | 11.3 | 0.03 | 0.28 | 0.28 | 86 | 1012.8 |
| 20260506100126 | 10 | 355 | 6.4 | 12.9 | 0.00 | 0.25 | 0.25 | 84 | 1012.8 |
| 20260506095610 | 10 | 334 | 3.2 | 11.3 | 0.00 | 0.25 | 0.25 | 82 | 1012.4 |
| 20260506094124 | 10 | 306 | 4.8 | 12.9 | 0.00 | 0.25 | 0.25 | 82 | 1012.3 |
| 20260506093123 | 10 | 70 | 0.0 | 11.3 | 0.00 | 0.25 | 0.25 | 83 | 1012.4 |
| 20260506092603 | 10 | 39 | 3.2 | 6.4 | 0.03 | 0.25 | 0.25 | 84 | 1012.5 |
| 20260506091535 | 10 | 283 | 1.6 | 12.9 | 0.05 | 0.25 | 0.25 | 84 | 1012.5 |
| 20260506085051 | 10 | 264 | 1.6 | 11.3 | 0.05 | 0.25 | 0.25 | 85 | 1012.5 |
| 20260506084052 | 10 | 87 | 0.0 | 11.3 | 0.10 | 0.25 | 0.25 | 87 | 1012.3 |
| 20260506083051 | 9 | 287 | 1.6 | 12.9 | 0.13 | 0.25 | 0.25 | 88 | 1012.2 |
| 20260506082051 | 10 | 278 | 3.2 | 11.3 | 0.18 | 0.23 | 0.23 | 88 | 1012.2 |
| 20260506081050 | 9 | 0 | 3.2 | 16.1 | 0.15 | 0.20 | 0.20 | 90 | 1012.2 |